KF5CFW Weather Reports


Display with metric or nautical units.
time (UTC)temp
F
wind
direction
speed
MPH
gust
MPH
rain 1hr
in
rain 24hr
in
rain mn
in
humidity
%
barometer
mb
20260903053005 82 188 0.0 1.0 0.00 0.00 0.00 58 1011.8
20260903051502 83 56 0.0 1.0 0.00 0.00 0.00 59 1011.7
20260903050106 83 143 0.0 1.0 0.00 0.00 0.00 59 1011.5
20260903044608 84 148 0.0 1.0 0.00 0.00 0.00 60 1011.4
20260903043103 84 106 0.0 0.0 0.00 0.00 0.00 60 1011.4
20260903041600 84 134 0.0 0.0 0.00 0.00 0.00 60 1011.3
20260903040107 85 134 0.0 1.0 0.00 0.00 0.00 60 1011.6
20260903034558 86 65 0.0 1.0 0.00 0.00 0.00 59 1011.4
20260903033057 86 103 0.0 1.0 0.00 0.00 0.00 59 1011.2
20260903031600 87 146 0.0 1.0 0.00 0.00 0.00 58 1011.2
20260903030112 88 51 0.0 2.0 0.00 0.00 0.00 57 1011.1
20260903024556 88 145 0.0 1.0 0.00 0.00 0.00 56 1010.9
20260903023056 89 92 0.0 1.0 0.00 0.00 0.00 54 1010.7
20260903021555 90 115 0.0 1.0 0.00 0.00 0.00 52 1010.5
20260903020055 90 141 0.0 1.0 0.00 0.00 0.00 52 1010.2
20260903014600 91 159 0.0 1.0 0.00 0.00 0.00 52 1010.1
20260903013053 92 148 0.0 1.0 0.00 0.00 0.00 51 1009.9
20260903011606 92 121 0.0 1.0 0.00 0.00 0.00 50 1009.9
20260903010111 93 203 0.0 1.0 0.00 0.00 0.00 49 1009.6
20260903004551 94 233 0.0 1.0 0.00 0.00 0.00 48 1009.6
20260903003053 94 92 0.0 1.0 0.00 0.00 0.00 45 1009.6
20260903001550 95 117 0.0 2.0 0.00 0.00 0.00 45 1009.5
20260903000050 96 56 0.0 2.0 0.00 0.00 0.00 44 1009.5
20260902234554 98 85 0.0 0.0 0.00 0.00 0.00 39 1009.2
20260902233049 99 129 0.0 1.0 0.00 0.00 0.00 37 1009.2
20260902231606 100 155 0.0 1.0 0.00 0.00 0.00 37 1009.1
20260902230047 101 146 0.0 1.0 0.00 0.00 0.00 36 1009.2
20260902224558 102 137 0.0 1.0 0.00 0.00 0.00 34 1009.2
20260902223052 103 122 0.0 1.0 0.00 0.00 0.00 34 1009.2
20260902221557 102 183 0.0 1.0 0.00 0.00 0.00 35 1009.3
20260902220055 102 34 0.0 1.0 0.00 0.00 0.00 36 1009.6
20260902214541 102 22 0.0 1.0 0.00 0.00 0.00 36 1009.6
20260902213041 102 302 0.0 1.0 0.00 0.00 0.00 36 1009.7
20260902211538 103 23 0.0 2.0 0.00 0.00 0.00 35 1010.0
20260902210042 103 40 0.0 2.0 0.00 0.00 0.00 35 1010.2
20260902204534 102 99 0.0 2.0 0.00 0.00 0.00 37 1010.3
20260902203034 102 356 0.0 1.0 0.00 0.00 0.00 35 1010.5
20260902201542 102 356 0.0 1.0 0.00 0.00 0.00 35 1010.7
20260902200027 101 40 0.0 1.0 0.00 0.00 0.00 37 1010.9
20260902194532 101 6 0.0 2.0 0.00 0.00 0.00 38 1011.2
20260902193038 101 101 0.0 1.0 0.00 0.00 0.00 39 1011.3
20260902191520 100 23 0.0 1.0 0.00 0.00 0.00 40 1011.8
20260902190018 100 1 0.0 1.0 0.00 0.00 0.00 39 1011.9
20260902184517 100 77 0.0 2.0 0.00 0.00 0.00 39 1012.1
20260902183018 99 307 0.0 2.0 0.00 0.00 0.00 41 1012.3
20260902181510 99 67 0.0 1.0 0.00 0.00 0.00 40 1012.7
20260902180007 98 350 0.0 1.0 0.00 0.00 0.00 42 1013.0
20260902174503 98 84 0.0 1.0 0.00 0.00 0.00 43 1013.3
20260902173003 98 135 0.0 1.0 0.00 0.00 0.00 43 1013.5
20260902171604 97 221 0.0 2.0 0.00 0.00 0.00 43 1013.8
20260902170057 96 4 0.0 1.0 0.00 0.00 0.00 44 1014.0
20260902164552 95 41 0.0 1.0 0.00 0.00 0.00 47 1014.1
20260902163057 94 123 0.0 1.0 0.00 0.00 0.00 48 1014.2
20260902161543 93 134 0.0 1.0 0.00 0.00 0.00 50 1014.4
20260902160039 91 17 0.0 1.0 0.00 0.00 0.00 51 1014.4
20260902154537 90 103 0.0 1.0 0.00 0.00 0.00 53 1014.4
20260902153046 89 33 0.0 1.0 0.00 0.00 0.00 54 1014.4
20260902151529 88 150 0.0 1.0 0.00 0.00 0.00 57 1014.4
20260902150031 88 151 0.0 0.0 0.00 0.00 0.00 58 1014.4
20260902144527 87 126 0.0 1.0 0.00 0.00 0.00 58 1014.4
20260902143026 87 141 0.0 1.0 0.00 0.00 0.00 59 1014.5
20260902141525 85 141 0.0 0.0 0.00 0.00 0.00 59 1014.4
20260902140026 84 141 0.0 0.0 0.00 0.00 0.00 59 1014.4
20260902134533 83 142 0.0 0.0 0.00 0.00 0.00 57 1014.4
20260902133025 82 158 0.0 1.0 0.00 0.00 0.00 53 1014.4
20260902131537 81 136 0.0 1.0 0.00 0.00 0.00 49 1014.4
20260902130025 80 136 0.0 1.0 0.00 0.00 0.00 45 1014.0
20260902124519 79 136 0.0 0.0 0.00 0.00 0.00 43 1013.9
20260902123018 79 136 0.0 0.0 0.00 0.00 0.00 41 1013.7
20260902121517 79 136 0.0 0.0 0.00 0.00 0.00 42 1013.5
20260902120016 79 137 0.0 0.0 0.00 0.00 0.00 44 1013.6
20260902114516 79 137 0.0 0.0 0.00 0.00 0.00 46 1013.6
20260902113012 80 137 0.0 0.0 0.00 0.00 0.00 48 1013.6
20260902111510 80 136 0.0 0.0 0.00 0.00 0.00 48 1013.5
20260902110014 80 136 0.0 0.0 0.00 0.00 0.00 50 1013.6
20260902104510 80 136 0.0 0.0 0.00 0.00 0.00 51 1013.6
20260902103007 80 136 0.0 0.0 0.00 0.00 0.00 53 1013.5
20260902101506 80 137 0.0 0.0 0.00 0.00 0.00 53 1013.5
20260902100005 80 136 0.0 0.0 0.00 0.00 0.00 55 1013.4
20260902094502 81 136 0.0 0.0 0.00 0.00 0.00 58 1013.4
20260902093105 81 136 0.0 0.0 0.00 0.00 0.00 59 1013.4
20260902091559 82 136 0.0 0.0 0.00 0.00 0.00 60 1013.4
20260902084558 83 136 0.0 0.0 0.00 0.00 0.00 60 1013.4
20260902083053 83 136 0.0 1.0 0.00 0.00 0.00 60 1013.4
20260902081552 84 138 0.0 1.0 0.00 0.00 0.00 60 1013.4
20260902080051 84 154 0.0 0.0 0.00 0.00 0.00 60 1013.4
20260902074557 84 124 0.0 1.0 0.00 0.00 0.00 60 1013.4
20260902073047 85 158 0.0 1.0 0.00 0.00 0.00 60 1013.4
20260902071545 85 158 0.0 1.0 0.00 0.00 0.00 59 1013.5
20260902070044 85 145 0.0 1.0 0.00 0.00 0.00 59 1013.5
20260902064545 85 146 0.0 1.0 0.00 0.00 0.00 59 1013.5
20260902063041 86 152 0.0 1.0 0.00 0.00 0.00 59 1013.4
20260902061556 86 141 0.0 1.0 0.00 0.00 0.00 59 1013.3
20260902060049 86 145 0.0 2.0 0.00 0.00 0.00 58 1013.1
20260902054548 86 157 0.0 1.0 0.00 0.00 0.00 58 1013.1